Dewpoint
63 58 58 54 42 34 29 29 29 27 26 25 23 23 20 19 17 17 45 49 51 50 56 62 73 71 70 70 70 70 70 69 65 63 62 62 61 60 60 61 62 63 64 64 65 63 63 65 65
57 58 54 45 37 29 27 28 27 27 26 26 23 22 21 19 26 29 37 49 50 49 57 56 72 73 72 72 71 70 70 69 67 64 63 63 62 61 61 62 62 63 63 64 64 64 64 65 65
55 52 46 40 33 28 28 28 27 25 25 24 22 25 23 25 34 36 42 47 48 48 49 54 70 73 73 72 70 70 69 68 67 65 65 64 63 63 62 62 63 63 63 64 64 65 64 64 66
51 49 43 36 31 31 28 28 28 24 22 22 21 22 31 36 38 39 43 43 42 41 43 55 65 68 71 71 70 70 68 67 66 65 65 64 64 64 63 62 62 62 62 63 64 64 64 65 66
48 41 35 34 31 31 29 29 26 24 23 20 21 22 29 38 42 42 41 40 41 41 46 49 66 68 69 69 68 68 67 67 65 64 64 64 65 63 63 63 62 62 62 61 63 64 64 65 67
40 39 33 27 29 32 31 28 24 22 21 20 21 23 28 39 41 41 42 45 45 45 53 54 63 67 67 68 67 65 64 64 63 63 63 63 63 63 63 63 63 62 62 61 61 63 64 65 67
39 34 31 30 30 31 28 25 22 21 21 19 24 24 31 37 40 43 42 43 45 47 47 50 52 55 60 58 59 60 60 61 62 62 62 62 62 63 63 63 63 62 61 62 61 62 65 65 65
38 34 30 31 30 29 29 25 22 21 21 26 28 23 27 38 41 41 38 39 40 42 42 47 51 49 54 55 56 60 61 61 61 61 61 62 62 63 62 63 63 61 62 62 61 61 64 64 65
38 30 26 28 29 29 30 27 23 24 22 26 28 29 33 38 38 37 38 38 40 40 43 47 48 52 56 55 55 59 59 60 60 60 60 60 59 58 60 61 61 61 61 61 61 61 64 64 65
34 26 26 28 31 31 29 29 27 24 25 26 29 33 34 36 36 35 36 36 39 40 42 44 53 56 56 53 58 59 59 58 58 58 59 59 59 60 58 59 60 62 62 61 61 62 64 64 62
30 27 26 26 30 29 27 26 26 24 23 26 25 28 34 35 37 37 34 37 40 44 42 43 55 57 57 56 57 56 58 58 58 59 61 59 59 61 61 56 56 59 60 59 60 58 60 61 64
29 25 27 27 29 26 26 27 25 23 24 27 27 29 34 36 38 37 37 38 41 42 45 51 55 58 60 58 56 57 59 58 58 58 59 60 58 60 61 61 55 60 60 61 62 56 61 64 65
27 25 26 28 27 24 25 24 22 22 24 27 28 32 34 36 38 40 41 44 45 43 52 55 57 60 61 61 58 59 60 58 58 59 60 60 59 61 59 58 58 57 58 60 63 60 61 65 64
27 27 26 27 24 22 22 22 23 23 27 29 31 32 33 35 38 41 44 45 46 46 54 55 57 60 60 60 61 61 60 60 58 58 59 61 61 62 62 57 60 63 60 59 60 59 61 63 63
29 27 27 25 23 22 22 23 23 25 30 29 32 33 33 37 38 41 44 47 47 49 55 55 57 59 61 61 61 61 60 61 58 58 60 60 62 63 62 59 56 56 62 62 61 63 63 61 61
25 25 23 25 23 22 22 24 25 26 31 30 31 32 34 38 40 41 46 49 48 53 52 55 55 58 60 61 61 60 62 62 64 63 61 61 61 62 63 64 63 64 63 62 60 58 58 58 59
26 22 23 25 25 24 24 25 26 26 28 30 31 34 34 38 42 45 48 48 47 50 52 54 57 57 60 61 60 61 63 62 63 65 64 61 62 62 64 65 63 64 62 63 62 57 58 58 59
23 22 22 25 25 24 24 25 25 25 26 31 33 34 36 38 41 45 49 48 47 50 53 55 57 59 60 59 60 62 65 65 65 63 61 62 63 61 63 65 64 63 61 63 63 61 58 57 59
24 24 24 25 26 26 27 27 26 27 26 29 33 36 38 39 41 46 49 49 48 49 52 56 56 58 57 56 57 59 61 60 64 63 61 61 62 61 63 61 61 61 61 62 63 62 61 61 62
27 26 26 27 26 27 26 24 25 26 26 29 33 37 38 40 42 46 50 50 49 46 50 55 55 56 56 56 60 60 60 59 59 62 62 62 61 62 63 64 62 61 58 62 62 63 61 63 65
27 27 27 27 28 26 25 24 25 25 26 29 34 36 39 41 43 46 48 49 48 48 50 51 54 56 57 61 59 64 64 61 64 62 63 63 62 62 63 61 61 61 59 59 63 64 62 60 66
25 26 26 27 26 21 26 22 24 25 24 26 32 36 38 40 42 46 48 49 47 48 50 50 53 57 57 61 59 61 62 59 60 65 64 63 63 62 62 62 61 62 58 65 66 67 64 63 63
25 24 27 27 26 26 23 23 22 21 23 21 22 33 38 40 42 45 47 47 44 49 50 54 55 56 59 61 60 56 59 65 64 64 63 63 64 63 62 63 63 64 66 66 65 65 64 63 63
25 26 27 27 25 23 22 20 16 18 20 22 24 33 38 39 41 44 47 46 45 48 49 53 54 54 57 59 60 60 60 60 63 63 62 60 65 65 63 62 63 65 65 65 66 65 66 66 65
26 28 23 24 22 21 23 18 20 22 20 24 27 30 39 40 40 43 45 44 45 48 49 52 51 52 53 55 58 58 60 61 61 62 62 62 63 65 64 63 64 65 64 65 66 65 65 65 62
25 27 21 21 21 18 23 19 19 21 26 33 35 39 41 40 41 43 45 45 43 46 50 51 51 51 51 53 56 58 58 54 60 63 63 63 63 62 63 63 64 63 63 64 65 65 66 67 63
24 24 25 24 24 20 18 21 25 24 27 33 37 40 42 42 42 43 45 46 43 46 51 53 52 50 50 52 55 56 56 58 58 65 65 62 63 64 63 63 63 64 64 64 65 67 66 65 63
24 25 24 23 23 22 18 20 19 21 28 39 40 41 42 42 41 43 44 46 43 46 51 54 54 49 51 51 52 52 55 56 58 62 62 61 61 60 60 63 64 63 63 65 66 66 64 63 63
23 23 26 25 21 20 22 20 26 25 33 38 41 41 42 41 40 42 44 45 43 46 47 53 54 51 49 50 52 54 53 54 56 57 58 59 59 59 60 60 61 62 63 63 66 65 63 63 63
24 24 28 23 26 23 21 19 26 29 38 41 42 41 41 41 40 41 43 43 42 45 47 51 54 50 45 48 50 53 52 54 55 56 57 59 60 60 60 61 61 61 61 62 62 63 62 62 63
Lifted_Index
2 2 1 1 2 2 2 3 4 4 5 5 6 7 8 9 9 8 6 5 4 3 2 -0 -3 -4 -4 -4 -4 -4 -3 -2 -1 1 1 2 3 3 3 3 2 1 1 0 0 0 0 -0 -1
2 1 1 1 1 2 2 3 4 4 5 5 6 7 8 8 8 8 6 5 4 4 3 1 -2 -4 -4 -4 -4 -4 -3 -2 -1 0 1 1 2 3 3 3 2 1 1 0 0 0 0 -0 -1
1 1 1 1 1 2 2 3 4 5 5 5 6 7 7 8 7 7 6 5 5 5 4 2 -1 -4 -5 -5 -4 -4 -3 -2 -1 -0 0 1 1 2 2 2 2 1 1 0 0 0 0 -0 -1
1 1 1 1 1 2 3 3 4 5 5 5 6 6 7 7 6 6 6 6 6 6 5 3 0 -3 -4 -4 -4 -4 -3 -2 -1 -0 0 1 1 1 2 2 2 2 1 1 0 0 0 -0 -1
1 1 1 1 1 2 3 3 4 5 5 5 5 6 6 6 6 6 6 6 6 6 5 3 0 -2 -3 -4 -3 -3 -2 -1 -1 0 0 1 1 1 1 1 2 2 2 2 1 1 0 -0 -1
1 1 1 1 1 2 3 4 4 4 4 5 5 6 6 6 6 6 6 6 6 6 5 3 1 -1 -1 -1 -1 -1 -0 -0 0 0 1 1 1 1 1 1 1 2 2 2 2 1 0 -0 -0
1 1 1 1 1 2 3 4 4 4 4 5 6 6 6 6 6 7 7 6 6 6 5 4 4 3 2 2 2 2 2 1 1 1 1 1 1 1 1 1 1 1 2 2 2 2 1 0 0
1 1 1 1 1 1 2 3 4 4 5 5 6 6 6 6 7 7 7 7 6 6 6 6 5 5 4 4 3 3 3 2 2 2 1 1 1 1 0 0 1 1 1 2 2 2 1 0 0
2 2 2 1 1 1 2 2 3 4 5 5 6 6 6 6 7 7 7 6 6 6 6 6 5 5 4 4 3 3 2 3 3 2 2 1 1 0 0 0 1 1 1 1 2 2 1 0 0
2 2 2 2 1 1 1 2 2 3 4 5 5 6 6 6 6 6 6 6 6 6 7 6 5 4 4 3 3 2 2 2 3 2 2 1 0 0 0 1 1 1 1 1 1 1 1 0 0
3 3 2 2 1 1 2 2 2 2 3 4 5 5 6 6 6 6 6 6 6 6 6 6 5 4 3 3 2 2 2 2 2 2 1 0 -0 -0 -0 1 1 0 0 0 1 1 1 0 -0
3 3 3 2 2 2 2 2 2 2 3 4 5 5 5 5 5 5 5 5 6 6 5 5 4 3 3 2 2 2 1 1 1 1 0 -0 -1 -0 0 0 0 -0 -0 -0 0 0 0 -0 -0
3 3 3 2 2 2 2 2 2 2 3 4 4 5 5 5 5 5 5 5 5 5 4 3 3 2 2 2 2 2 1 1 0 0 -0 -1 -1 -1 0 1 0 -0 -1 -1 -0 -0 -0 -1 -1
3 3 3 2 2 2 2 2 2 2 3 4 4 4 4 4 4 4 4 5 5 4 3 3 3 2 2 2 1 1 1 0 0 0 -0 -1 -1 -1 -0 0 0 -0 -1 -1 -1 -1 -1 -1 -1
3 3 2 2 2 2 2 2 2 2 2 3 4 4 4 4 4 4 4 4 4 4 3 3 2 2 1 1 1 1 0 -0 -0 -0 -1 -1 -1 -1 -1 -0 -0 -1 -1 -1 -1 -1 -1 -1 -1
3 3 2 1 2 2 2 2 1 2 2 3 3 4 4 4 4 4 4 4 4 4 3 3 2 2 1 1 1 0 -0 -1 -1 -1 -1 -1 -1 -2 -2 -1 -1 -2 -2 -2 -2 -2 -1 -1 -1
3 2 1 1 2 2 2 2 2 2 2 3 3 4 4 4 4 4 4 4 4 4 3 3 2 2 1 1 0 -0 -0 -1 -1 -0 0 -0 -1 -2 -2 -2 -2 -2 -2 -2 -2 -2 -1 -1 -1
2 2 1 1 2 2 2 2 2 3 3 3 3 3 4 4 4 4 3 4 4 4 3 3 2 2 1 1 0 -0 -0 -0 -0 0 1 0 -1 -1 -2 -2 -2 -2 -2 -2 -2 -2 -2 -1 -1
2 2 1 1 2 2 2 2 3 3 3 3 3 3 3 4 4 3 3 3 4 4 3 2 2 2 2 1 0 -0 -0 -0 0 1 1 1 -0 -1 -1 -2 -2 -1 -1 -2 -2 -2 -2 -2 -2
2 2 2 2 2 2 3 3 3 3 3 3 2 2 2 3 3 3 3 3 4 4 3 2 2 2 2 1 0 -0 -0 0 1 1 1 1 0 -1 -1 -1 -1 -1 -1 -2 -2 -2 -2 -2 -2
2 2 2 2 2 3 3 3 3 3 3 3 2 2 2 3 3 3 2 3 4 4 3 2 2 2 2 1 0 -0 -0 -0 0 0 0 0 0 -0 -1 -1 -1 -1 -1 -2 -2 -2 -2 -3 -3
2 3 3 3 3 3 3 3 3 3 3 3 2 2 2 2 3 2 2 3 4 4 3 2 2 2 1 1 0 0 -0 -0 -0 -1 -0 -0 -0 -0 -0 -1 -1 -1 -2 -2 -2 -3 -3 -3 -3
3 3 3 3 3 3 3 2 2 2 2 2 2 2 2 2 3 2 2 3 4 4 3 2 2 1 1 0 1 1 0 -0 -1 -1 -1 -0 -1 -0 -1 -1 -1 -2 -2 -3 -3 -3 -3 -2 -2
3 3 3 3 3 3 3 2 2 2 2 2 2 2 1 2 2 3 3 3 4 3 3 2 2 2 1 1 1 1 1 0 -0 -0 -0 -0 -0 -1 -0 -1 -1 -2 -3 -3 -3 -3 -3 -3 -2
4 3 3 2 2 2 2 2 2 2 2 2 2 1 1 1 2 3 3 3 4 3 3 2 2 2 2 1 1 1 1 1 0 -0 0 0 0 -0 -0 -0 -1 -1 -2 -3 -3 -3 -3 -3 -2
4 3 3 2 1 1 1 2 1 1 1 1 1 0 1 1 2 3 3 3 4 3 3 2 2 3 3 2 1 1 1 1 0 -1 -0 0 0 0 0 -0 -1 -1 -2 -2 -3 -3 -3 -3 -2
4 4 3 3 2 1 1 1 1 1 0 -0 -0 -0 1 2 2 3 3 3 4 4 3 2 2 3 3 3 2 2 2 1 0 -1 -1 -0 -0 0 0 -0 -1 -1 -2 -2 -3 -3 -3 -2 -1
4 4 4 4 2 1 0 0 0 -0 -1 -1 -1 -0 1 2 2 3 3 3 4 4 3 2 2 3 3 3 3 2 2 2 1 -0 -0 -0 0 1 1 -0 -1 -1 -1 -2 -2 -3 -2 -2 -1
4 4 4 4 2 1 0 -0 -0 -1 -1 -2 -2 -1 0 1 2 3 3 3 4 4 3 2 1 3 4 4 3 3 3 2 2 1 1 0 0 1 1 1 0 -0 -1 -1 -2 -2 -2 -1 -1
4 4 4 3 3 2 1 -0 -0 -1 -2 -3 -3 -1 0 1 2 2 3 3 4 4 3 2 1 3 4 4 4 3 3 3 2 2 1 1 0 0 1 1 1 1 0 -0 -1 -2 -2 -1 -1